EA3ANS-1 Weather Reports


time (UTC)temp
C
wind
direction
speed
KPH
gust
KPH
rain 1hr
cm
rain 24hr
cm
rain mn
cm
humidity
%
barometer
mb
20260502170251 18 101 6.4 4.8 0.00 0.00 0.00 1018.2
20260502164256 19 96 6.4 1.6 0.00 0.00 0.00 1018.8
20260502163259 18 138 4.8 4.8 0.00 0.00 0.00 1019.1
20260502162250 20 120 8.0 4.8 0.00 0.00 0.00 1018.9
20260502161248 20 132 4.8 8.0 0.00 0.00 0.00 1018.9
20260502160245 20 97 6.4 6.4 0.00 0.00 0.00 1019.0
20260502152250 20 128 6.4 8.0 0.00 0.00 0.00 1019.4
20260502151245 20 65 8.0 9.7 0.00 0.00 0.00 1019.4
20260502150246 20 142 8.0 8.0 0.00 0.00 0.00 1019.5
20260502130249 20 167 9.7 9.7 0.00 0.00 0.00 1020.6
20260502123245 21 136 3.2 0.0 0.00 0.00 0.00 1020.7
20260502122246 21 125 6.4 4.8 0.00 0.00 0.00 1020.9
20260502121246 20 165 6.4 0.0 0.00 0.00 0.00 1021.0
20260502120245 20 134 3.2 1.6 0.00 0.00 0.00 1021.1
20260502115246 20 73 8.0 3.2 0.00 0.00 0.00 1021.1
20260502114242 20 203 0.0 1.6 0.00 0.00 0.00 1021.2
20260502113242 21 90 4.8 3.2 0.00 0.00 0.00 1021.2
20260502112243 20 38 4.8 8.0 0.00 0.00 0.00 1021.4
20260502111244 20 70 4.8 8.0 0.00 0.00 0.00 1021.5
20260502110243 20 148 3.2 4.8 0.00 0.00 0.00 1021.6
20260502105246 20 204 4.8 4.8 0.00 0.00 0.00 1021.7
20260502104248 19 121 1.6 4.8 0.00 0.00 0.00 1021.7
20260502103244 19 104 3.2 4.8 0.00 0.00 0.00 1021.8
20260502102243 19 135 1.6 1.6 0.00 0.00 0.00 1022.0
20260502101242 19 134 4.8 1.6 0.00 0.00 0.00 1022.2
20260502100243 18 79 0.0 1.6 0.00 0.00 0.00 1022.5
20260502091242 18 79 4.8 8.0 0.00 0.00 0.00 1022.7
20260502090242 18 23 6.4 1.6 0.00 0.00 0.00 1022.7
20260502071253 17 80 3.2 4.8 0.00 0.00 0.00 1022.7
20260502070248 17 111 1.6 1.6 0.00 0.00 0.00 1022.7
20260502065250 17 124 1.6 6.4 0.00 0.00 0.00 1022.7
20260502064242 17 100 0.0 1.6 0.00 0.00 0.00 1022.8
20260502063244 17 56 1.6 1.6 0.00 0.00 0.00 1022.6
20260502062247 17 69 3.2 9.7 0.00 0.00 0.00 1022.6
20260502061250 17 60 8.0 8.0 0.00 0.00 0.00 1022.4
20260502060248 17 60 4.8 9.7 0.00 0.00 0.00 1022.4
20260502055226 17 25 6.4 3.2 0.00 0.00 0.00 1022.1
20260502054228 17 55 3.2 3.2 0.00 0.00 0.00 1022.0
20260502053231 17 79 3.2 3.2 0.00 0.00 0.00 1022.0
20260502052233 16 68 8.0 6.4 0.00 0.00 0.00 1021.9
20260502051226 16 90 3.2 1.6 0.00 0.00 0.00 1022.3
20260502050229 16 30 3.2 1.6 0.00 0.00 0.00 1022.2
20260502045231 16 66 0.0 0.0 0.00 0.00 0.00 1022.1
20260502044226 17 76 3.2 3.2 0.00 0.00 0.00 1022.1
20260502043228 16 117 1.6 3.2 0.00 0.00 0.00 1022.1
20260502042230 16 113 4.8 1.6 0.00 0.00 0.00 1022.2
20260502041223 17 179 0.0 0.0 0.00 0.00 0.00 1022.2
20260502040226 17 75 0.0 0.0 0.00 0.00 0.00 1022.1
20260502035228 16 96 4.8 6.4 0.00 0.00 0.00 1022.0
20260502034229 16 128 1.6 3.2 0.00 0.00 0.00 1022.1
20260502033226 16 146 0.0 3.2 0.00 0.00 0.00 1022.1
20260502032226 17 46 4.8 6.4 0.00 0.00 0.00 1022.1
20260502031223 17 107 1.6 3.2 0.00 0.00 0.00 1022.0
20260502030225 17 145 6.4 4.8 0.00 0.00 0.00 1022.2
20260502025226 17 142 4.8 4.8 0.00 0.00 0.00 1022.1
20260502024229 17 52 0.0 0.0 0.00 0.00 0.00 1022.1
20260502023231 17 80 6.4 4.8 0.00 0.00 0.00 1022.3
20260502022227 17 51 0.0 3.2 0.00 0.00 0.00 1022.3
20260502021204 17 70 3.2 4.8 0.00 0.00 0.00 1022.3
20260502020207 17 77 4.8 6.4 0.00 0.00 0.00 1022.3
20260502015210 17 17 3.2 0.0 0.00 0.00 0.00 1022.4
20260502014200 17 89 6.4 4.8 0.00 0.00 0.00 1022.4
20260502013203 17 58 6.4 8.0 0.00 0.00 0.00 1022.4
20260502012204 17 77 0.0 1.6 0.00 0.00 0.00 1022.4
20260502011201 17 89 3.2 1.6 0.00 0.00 0.00 1022.5
20260502010203 17 132 0.0 4.8 0.00 0.00 0.00 1022.6
20260502005159 17 105 1.6 1.6 0.00 0.00 0.00 1022.7
20260502004156 17 52 4.8 8.0 0.00 0.00 0.00 1022.8
20260502003159 17 59 0.0 4.8 0.00 0.00 0.00 1023.1
20260502002159 17 318 0.0 0.0 0.00 0.00 0.00 1023.2
20260502001159 16 326 0.0 3.2 0.00 0.00 0.00 1023.3
20260502000150 16 231 1.6 0.0 0.00 0.00 0.00 1023.5
20260501235152 17 41 0.0 0.0 0.00 0.00 0.00 1023.5
20260501234144 17 41 0.0 0.0 0.00 0.00 0.00 1023.5
20260501233146 16 41 0.0 0.0 0.00 0.00 0.00 1023.7
20260501232149 16 31 1.6 4.8 0.00 0.00 0.00 1023.7
20260501231149 16 55 0.0 0.0 0.00 0.00 0.00 1023.8
20260501230151 16 55 0.0 0.0 0.00 0.00 0.00 1023.8
20260501225148 17 55 0.0 0.0 0.00 0.00 0.00 1023.6
20260501224148 16 239 0.0 0.0 0.00 0.00 0.00 1023.5
20260501223151 16 239 0.0 0.0 0.00 0.00 0.00 1023.5
20260501222153 16 239 0.0 0.0 0.00 0.00 0.00 1023.5
20260501221156 16 136 0.0 0.0 0.00 0.00 0.00 1023.5
20260501220159 16 136 0.0 0.0 0.00 0.00 0.00 1023.4
20260501215156 17 136 0.0 0.0 0.00 0.00 0.00 1023.4
20260501214141 17 136 0.0 0.0 0.00 0.00 0.00 1023.5
20260501213139 16 136 0.0 0.0 0.00 0.00 0.00 1023.5
20260501212138 16 170 0.0 0.0 0.00 0.00 0.00 1023.6
20260501211139 16 181 0.0 0.0 0.00 0.00 0.00 1023.7
20260501210139 17 181 3.2 0.0 0.00 0.00 0.00 1023.6
20260501205140 17 194 3.2 4.8 0.00 0.00 0.00 1023.7
20260501204139 17 143 3.2 1.6 0.00 0.00 0.00 1023.6
20260501203128 17 208 1.6 6.4 0.00 0.00 0.00 1023.2
20260501202130 17 44 0.0 0.0 0.00 0.00 0.00 1023.2
20260501201133 17 148 4.8 8.0 0.00 0.00 0.00 1023.2
20260501200131 17 104 4.8 4.8 0.00 0.00 0.00 1023.1
20260501194940 17 118 6.4 3.2 0.00 0.00 0.00 1023.0
20260501193318 17 128 4.8 3.2 0.00 0.00 0.00 1022.7
20260501192320 17 159 9.7 4.8 0.00 0.00 0.00 1022.7
20260501191315 17 136 9.7 4.8 0.00 0.00 0.00 1022.6
20260501190312 17 129 6.4 3.2 0.00 0.00 0.00 1022.6
20260501185315 17 180 8.0 8.0 0.00 0.00 0.00 1022.5
20260501184318 17 134 12.9 14.5 0.00 0.00 0.00 1022.5
20260501183320 18 158 12.9 11.3 0.00 0.00 0.00 1022.2
20260501182323 18 152 9.7 9.7 0.00 0.00 0.00 1022.1
20260501181326 18 159 6.4 9.7 0.00 0.00 0.00 1022.1
20260501180316 18 129 11.3 9.7 0.00 0.00 0.00 1022.0
20260501175311 18 158 12.9 16.1 0.00 0.00 0.00 1021.8
20260501174314 18 113 14.5 9.7 0.00 0.00 0.00 1021.6
20260501173317 18 143 12.9 8.0 0.00 0.00 0.00 1021.5
20260501172315 18 132 14.5 19.3 0.00 0.00 0.00 1021.3